Tracking 27402 objects as of 2-Jun-2023
HD Live streaming from Space Station
objects crossing your sky now

NOAA 16 DEB

Track NOAA 16 DEB now!
10-day predictions


NORAD ID: 41652
Int'l Code: 2000-055NR
Perigee: 813.6 km
Apogee: 884.2 km
Inclination: 98.9 °
Period: 101.8 minutes
Semi major axis: 7219 km
RCS: Unknown
Launch date: September 21, 2000
Source: United States (US)
Launch site: AIR FORCE WESTERN TEST RANGE (AFWTR)

Note: This is SATELLITE DEBRIS
Your satellite tracking list
Your tracking list is empty




NASA's NSSDC Master Catalog

Two Line Element Set (TLE):
1 41652U 00055NR  23152.03980951  .00005653  00000-0  28992-2 0  9997
2 41652  98.8957 230.5317 0048928  75.2005 285.4582 14.15160921366118
Source of the keplerian elements: AFSPC